Orbital Elements at Epoch 2459200.5 (2020-Dec-17.0) TDB
Reference: JPL 26 (heliocentric ecliptic J2000)
Element | Value | Uncertainty (1-sigma) | Units |
e | .1125992276008523 | 3.4259e-08 | |
a | 2.581291613670696 | 1.136e-08 | au |
q | 2.290640171758818 | 9.0165e-08 | au |
i | 3.263572680675674 | 4.0028e-06 | deg |
node | 238.7783149426694 | 5.6058e-05 | deg |
peri | 45.30805520514028 | 5.8425e-05 | deg |
M | 193.4978189470191 | 1.7195e-05 | deg |
tp | 2459901.102138411955 (2022-Nov-17.60213841) | 7.4287e-05 | TDB |
period | 1514.795591464647 4.15 | 9.9995e-06 2.738e-08 | d yr |
n | .2376558276433311 | 1.5688e-09 | deg/d |
Q | 2.871943055582574 | 1.2639e-08 | au |
|
| | Orbit Determination Parameters
Additional Information
|